Tracking 26240 objects as of 6-Oct-2022
HD Live streaming from Space Station
objects crossing your sky now

INTELSAT 2 (PAS 2)

Track INTELSAT 2 (PAS 2) now!
INTELSAT 2 (PAS 2) is classified as:


NORAD ID: 23175
Int'l Code: 1994-040A
Perigee: 36,078.1 km
Apogee: 36,118.9 km
Inclination: 9.9 °
Period: 1,451.7 minutes
Semi major axis: 42469 km
RCS: 6.3096 m2 (large)
Launch date: July 8, 1994
Source: United States (US)
Launch site: FRENCH GUIANA (FRGUI)

12 Ku-band; Asia-Pacific.
aabbcc
Your satellite tracking list
Your tracking list is empty




NASA's NSSDC Master Catalog

Two Line Element Set (TLE):
1 23175U 94040A   22278.81821093 -.00000284  00000-0  00000-0 0  9993
2 23175   9.8915  44.2715 0004811  64.8477 325.7124  0.99194385102257
Source of the keplerian elements: AFSPC